Zurück zum Katalog

FENGYUN 1C DEB

AktivLEO
NORAD 36987·DEBRIS·🇨🇳 China

Gestartet May 10, 1999 von Taiyuan Satellite Launch Center

Loading…

Nächste Überflüge (nächste 24 Stunden)

TLE

AlterndSource: Space-Track

Epoche: Sep 12, 2026, 13:31 UTC

1 36987U 99025EBT 26255.56337619  .00000617  00000-0  81659-3 0  9994
2 36987 100.7974 162.8372 0318469 117.1458 246.2521 13.46212957645614

Verfolge FENGYUN 1C DEB in Echtzeit mit AllMySat

Download on the App Store